Tracking 22779 objects as of 12-Apr-2021
HD Live streaming from Space Station
objects crossing your sky now

STARLINK 1030

Track STARLINK 1030 now!
10-day predictions
STARLINK 1030 is classified as:


NORAD ID: 44735
Int'l Code: 2019-074Y
Perigee: 553.1 km
Apogee: 555.6 km
Inclination: 53.1 °
Period: 95.6 minutes
Semi major axis: 6925 km
RCS: Unknown
Launch date: November 11, 2019
Source: United States (US)
Launch site: AIR FORCE EASTERN TEST RANGE (AFETR)
aabbcc
Your satellite tracking list
Your tracking list is empty




NASA's NSSDC Master Catalog

Two Line Element Set (TLE):
1 44735U 19074Y   21101.92121000  .00000664  00000-0  63457-4 0  9999
2 44735  53.0580 334.6629 0001780  87.5856 272.5337 15.06397439 78421
Source of the keplerian elements: AFSPC